Flag Weather past 2 weeks in Costa Mesa, California, U.S.A.

Now
70 °F

Clear.


Feels Like: 77 °F
Forecast: 56 / 84 °F
Wind: 3 mph from Southeast

Location: John Wayne Airport-Orange County Airport

Current Time: Nov 26, 2014 at 7:11:43 PM

Latest Report: Nov 26, 2014 at 5:53 PM


Visibility: 10 mi

Pressure: 30.11 "Hg

Humidity: 47%

Dew point: 49 °F

Location of Costa MesaLocation

Historic Weather in Costa Mesa — Graph

°F

Costa Mesa temperature yesterday

Maximum temperature yesterday: 83 °F (at 12:53 PM)
Minimum temperature yesterday: 53 °F (at 5:53 AM)
Average temperature yesterday: 66 °F

Past Weeks' High & Low Weather Summary

 TemperatureHumidityPressure
High85 °F (Nov 23, 12:53 PM)85% (Nov 14, 2:53 AM)30.37 "Hg (Nov 14, 2:53 AM)
Low52 °F (Nov 26, 5:53 AM)2% (Nov 23, 1:53 PM)29.91 "Hg (Nov 11, 5:53 PM)
Average67 °F47%30.08 "Hg
* Reported Nov 11 5:53 PM — Nov 26 5:53 PM, Costa Mesa, Weather by CustomWeather, © 2014

Note: Actual official high and low records may vary slightly from our data, if they occured in-between our weather recording intervals... More about our weather records

Advertising

Costa Mesa weather history for previous 24 hours

 ConditionsComfort  
Time TempWeatherWind HumidityBarometerVisibility
5:53 PM
Nov 26
70 °FClear.3 mph47%30.11 "Hg10 mi
4:53 PM73 °FClear.5 mph30%30.12 "Hg10 mi
3:53 PM78 °FSunny.3 mph24%30.11 "Hg10 mi
2:53 PM81 °FSunny.8 mph20%30.12 "Hg10 mi
1:53 PM78 °FSunny.9 mph30%30.12 "Hg10 mi
12:53 PM83 °FSunny.No wind13%30.14 "Hg10 mi
11:53 AM80 °FSunny.5 mph18%30.17 "Hg10 mi
10:53 AM76 °FSunny.No wind16%30.20 "Hg10 mi
9:53 AM72 °FSunny.No wind19%30.22 "Hg10 mi
8:53 AM66 °FSunny.No wind22%30.23 "Hg10 mi
7:53 AM61 °FSunny.No wind29%30.22 "Hg10 mi
6:53 AM54 °FSunny.No wind43%30.22 "Hg10 mi
5:53 AM52 °FClear.No wind47%30.21 "Hg10 mi
4:53 AM54 °FClear.No wind41%30.20 "Hg10 mi
3:53 AM55 °FClear.No wind37%30.21 "Hg10 mi
2:53 AM55 °FClear.No wind42%30.22 "Hg10 mi
1:53 AM56 °FClear.No wind40%30.23 "Hg10 mi
12:53 AM57 °FClear.No wind41%30.24 "Hg10 mi
11:53 PM
Nov 25
59 °FClear.No wind35%30.25 "Hg10 mi
10:53 PM60 °FClear.3 mph35%30.27 "Hg10 mi
9:53 PM62 °FClear.No wind34%30.27 "Hg10 mi
8:53 PM64 °FClear.No wind32%30.28 "Hg10 mi
7:53 PM65 °FClear.No wind31%30.28 "Hg10 mi
Weather by CustomWeather, © 2014

See weather overviewHow to use our weather pages